CFG105 LEPA-LOWW

Flight info

Callsign CFG105
Flight time 2h 5m
Altitude 34000
Route ISTER6B ISTER DCT NIVDA DCT OMEDA DCT RAPUR DCT TORTU DCT ERTEV DCT IDONA/N0452F350 DCT BARPI DCT LAPNA LAPNA2W
Aircraft A321/M-V/N

Departure

Time 2026-04-24 13:32
Airport Palma de Mallorca Airport (LEPA)

Arrival

Time 2026-04-24 15:37
Airport Vienna International Airport (LOWW)
Time Latitude Longitude Altitude Speed Heading
2026-04-24 13:13 39.54555 2.73322 36 ft 0 kts 346°
2026-04-24 13:22 39.54543 2.73325 35 ft 3 kts 345°
2026-04-24 13:23 39.54524 2.73333 34 ft 3 kts 327°
2026-04-24 13:23 39.54515 2.73339 35 ft 3 kts 264°
2026-04-24 13:23 39.54503 2.73326 34 ft 3 kts 219°
2026-04-24 13:23 39.54491 2.73310 36 ft 2 kts 232°
2026-04-24 13:24 39.54492 2.73312 36 ft 0 kts 237°
2026-04-24 13:26 39.54485 2.73297 36 ft 2 kts 238°
2026-04-24 13:26 39.54458 2.73241 36 ft 13 kts 237°
2026-04-24 13:26 39.54405 2.73219 36 ft 5 kts 150°
2026-04-24 13:26 39.54349 2.73197 36 ft 15 kts 229°
2026-04-24 13:27 39.54280 2.73141 36 ft 11 kts 140°
2026-04-24 13:27 39.54256 2.73201 34 ft 0 kts 111°
2026-04-24 13:28 39.54255 2.73202 34 ft 0 kts 111°
2026-04-24 13:29 39.54253 2.73208 35 ft 0 kts 111°
2026-04-24 13:30 39.54240 2.73254 34 ft 14 kts 108°
2026-04-24 13:30 39.54239 2.73410 35 ft 18 kts 61°
2026-04-24 13:31 39.54309 2.73557 33 ft 24 kts 58°
2026-04-24 13:31 39.54488 2.73928 35 ft 80 kts 58°
2026-04-24 13:31 39.54878 2.74748 32 ft 132 kts 58°
2026-04-24 13:31 39.55416 2.75884 285 ft 151 kts 59°
2026-04-24 13:32 39.55968 2.77055 877 ft 153 kts 57°
2026-04-24 13:32 39.56558 2.78216 1367 ft 161 kts 60°
2026-04-24 13:32 39.57184 2.79570 1478 ft 186 kts 61°
2026-04-24 13:32 39.57872 2.81072 1687 ft 205 kts 61°
2026-04-24 13:33 39.58442 2.82812 1946 ft 217 kts 77°
2026-04-24 13:33 39.58840 2.84821 2273 ft 242 kts 77°
2026-04-24 13:33 39.59276 2.87011 3058 ft 247 kts 76°
2026-04-24 13:33 39.59707 2.89190 3849 ft 256 kts 75°
2026-04-24 13:34 39.60176 2.91443 4636 ft 261 kts 73°
2026-04-24 13:34 39.60660 2.93735 5400 ft 266 kts 74°
2026-04-24 13:34 39.61200 2.96049 6112 ft 271 kts 65°
2026-04-24 13:34 39.62192 2.98134 6829 ft 274 kts 54°
2026-04-24 13:35 39.63301 3.00174 7517 ft 279 kts 53°
2026-04-24 13:35 39.64436 3.02238 8192 ft 283 kts 52°
2026-04-24 13:35 39.65592 3.04334 8842 ft 288 kts 52°
2026-04-24 13:35 39.66766 3.06468 9513 ft 293 kts 52°
2026-04-24 13:36 39.67956 3.08637 10166 ft 297 kts 52°
2026-04-24 13:36 39.69186 3.10883 10444 ft 316 kts 52°
2026-04-24 13:36 39.70503 3.13288 10573 ft 338 kts 52°
2026-04-24 13:36 39.71903 3.15853 10700 ft 359 kts 53°
2026-04-24 13:37 39.73371 3.18547 11074 ft 370 kts 53°
2026-04-24 13:37 39.74861 3.21289 11679 ft 373 kts 53°
2026-04-24 13:37 39.76358 3.24051 12323 ft 375 kts 53°
2026-04-24 13:37 39.77862 3.26826 12994 ft 376 kts 53°
2026-04-24 13:38 39.79374 3.29614 13646 ft 378 kts 52°
2026-04-24 13:38 39.80892 3.32416 14248 ft 380 kts 52°
2026-04-24 13:38 39.82418 3.35235 14779 ft 383 kts 52°
2026-04-24 13:38 39.83957 3.38077 15298 ft 386 kts 53°
2026-04-24 13:39 39.85505 3.40941 15807 ft 388 kts 53°
2026-04-24 13:39 39.87064 3.43829 16323 ft 391 kts 53°
2026-04-24 13:39 39.88635 3.46739 16818 ft 394 kts 53°
2026-04-24 13:39 39.90219 3.49671 17310 ft 397 kts 53°
2026-04-24 13:40 39.91812 3.52622 17799 ft 400 kts 53°
2026-04-24 13:40 39.93416 3.55598 18286 ft 403 kts 53°
2026-04-24 13:40 39.95030 3.58599 18719 ft 405 kts 53°
2026-04-24 13:40 39.96649 3.61621 19128 ft 408 kts 53°
2026-04-24 13:41 39.98278 3.64665 19535 ft 411 kts 53°
2026-04-24 13:41 39.99920 3.67732 19930 ft 414 kts 53°
2026-04-24 13:41 40.01575 3.70817 20331 ft 416 kts 53°
2026-04-24 13:41 40.03239 3.73920 20724 ft 419 kts 53°
2026-04-24 13:42 40.04911 3.77045 21119 ft 421 kts 53°
2026-04-24 13:42 40.06592 3.80193 21518 ft 424 kts 53°
2026-04-24 13:42 40.08284 3.83362 21909 ft 427 kts 53°
2026-04-24 13:42 40.09985 3.86551 22306 ft 429 kts 53°
2026-04-24 13:43 40.11118 3.88674 22566 ft 431 kts 53°
2026-04-24 13:43 40.12837 3.91898 22951 ft 433 kts 53°
2026-04-24 13:43 40.14563 3.95140 23338 ft 436 kts 53°
2026-04-24 13:43 40.16296 3.98408 23721 ft 439 kts 53°
2026-04-24 13:44 40.18035 4.01697 24028 ft 441 kts 53°
2026-04-24 13:44 40.19781 4.05004 24342 ft 443 kts 53°
2026-04-24 13:44 40.21564 4.08374 24666 ft 445 kts 53°
2026-04-24 13:44 40.23329 4.11715 24979 ft 447 kts 53°
2026-04-24 13:45 40.25098 4.15071 25291 ft 449 kts 53°
2026-04-24 13:45 40.26855 4.18400 25596 ft 451 kts 53°
2026-04-24 13:45 40.28667 4.21834 25901 ft 453 kts 53°
2026-04-24 13:45 40.30440 4.25193 26183 ft 455 kts 52°
2026-04-24 13:46 40.32244 4.28610 26481 ft 457 kts 52°
2026-04-24 13:46 40.34053 4.32052 26758 ft 459 kts 53°
2026-04-24 13:46 40.35863 4.35509 27044 ft 461 kts 53°
2026-04-24 13:46 40.37705 4.39031 27334 ft 463 kts 53°
2026-04-24 13:47 40.39530 4.42519 27619 ft 465 kts 53°
2026-04-24 13:47 40.41364 4.46024 27916 ft 467 kts 53°
2026-04-24 13:47 40.43200 4.49544 28191 ft 468 kts 53°
2026-04-24 13:47 40.45042 4.53077 28527 ft 468 kts 52°
2026-04-24 13:48 40.46877 4.56601 28914 ft 467 kts 52°
2026-04-24 13:48 40.48710 4.60120 29292 ft 466 kts 52°
2026-04-24 13:48 40.50537 4.63630 29661 ft 465 kts 52°
2026-04-24 13:48 40.52360 4.67135 30029 ft 464 kts 52°
2026-04-24 13:49 40.54180 4.70640 30359 ft 463 kts 52°
2026-04-24 13:49 40.55993 4.74135 30685 ft 462 kts 52°
2026-04-24 13:49 40.57801 4.77625 31012 ft 461 kts 52°
2026-04-24 13:49 40.59603 4.81112 31341 ft 460 kts 52°
2026-04-24 13:50 40.61396 4.84588 31681 ft 458 kts 52°
2026-04-24 13:50 40.63184 4.88058 32012 ft 457 kts 52°
2026-04-24 13:50 40.64963 4.91517 32345 ft 456 kts 52°
2026-04-24 13:50 40.66739 4.94972 32679 ft 455 kts 52°
2026-04-24 13:51 40.68508 4.98415 33010 ft 453 kts 52°
2026-04-24 13:51 40.70274 5.01850 33346 ft 452 kts 52°
2026-04-24 13:51 40.72035 5.05279 33668 ft 451 kts 52°
2026-04-24 13:51 40.73792 5.08696 33990 ft 450 kts 52°
2026-04-24 13:52 40.75547 5.12112 34145 ft 449 kts 52°
2026-04-24 13:52 40.77288 5.15514 34168 ft 446 kts 52°
2026-04-24 13:52 40.80742 5.22289 34169 ft 444 kts 52°
2026-04-24 13:53 40.84187 5.29049 34173 ft 444 kts 52°
2026-04-24 13:53 40.87629 5.35811 34176 ft 443 kts 52°
2026-04-24 13:54 40.91058 5.42576 34172 ft 443 kts 52°
2026-04-24 13:54 40.94483 5.49340 34182 ft 443 kts 52°
2026-04-24 13:55 40.97904 5.56108 34183 ft 442 kts 52°
2026-04-24 13:55 41.01317 5.62887 34186 ft 443 kts 53°
2026-04-24 13:56 41.04720 5.69675 34189 ft 442 kts 53°
2026-04-24 13:56 41.08125 5.76465 34187 ft 442 kts 53°
2026-04-24 13:57 41.11524 5.83257 34186 ft 442 kts 54°
2026-04-24 13:57 41.14913 5.90045 34182 ft 441 kts 54°
2026-04-24 13:58 41.18304 5.96838 34182 ft 441 kts 54°
2026-04-24 13:58 41.21690 6.03631 34182 ft 441 kts 54°
2026-04-24 13:59 41.25068 6.10434 34185 ft 441 kts 55°
2026-04-24 13:59 41.28436 6.17251 34192 ft 441 kts 55°
2026-04-24 14:00 41.31800 6.24060 34188 ft 440 kts 55°
2026-04-24 14:00 41.35161 6.30868 34194 ft 440 kts 55°
2026-04-24 14:01 41.38500 6.37681 34189 ft 439 kts 56°
2026-04-24 14:01 41.41847 6.44490 34193 ft 439 kts 56°
2026-04-24 14:02 41.45183 6.51297 34187 ft 438 kts 56°
2026-04-24 14:02 41.48507 6.58108 34188 ft 438 kts 56°
2026-04-24 14:03 41.51820 6.64917 34190 ft 437 kts 56°
2026-04-24 14:03 41.55127 6.71729 34185 ft 437 kts 57°
2026-04-24 14:04 41.58437 6.78540 34187 ft 437 kts 57°
2026-04-24 14:04 41.61740 6.85356 34189 ft 437 kts 57°
2026-04-24 14:05 41.65035 6.92171 34189 ft 436 kts 57°
2026-04-24 14:05 41.68319 6.98987 34188 ft 436 kts 57°
2026-04-24 14:06 41.71600 7.05808 34186 ft 435 kts 57°
2026-04-24 14:06 41.74873 7.12626 34187 ft 435 kts 57°
2026-04-24 14:07 41.78133 7.19437 34189 ft 434 kts 58°
2026-04-24 14:07 41.81408 7.26296 34186 ft 434 kts 58°
2026-04-24 14:08 41.84657 7.33113 34184 ft 433 kts 58°
2026-04-24 14:08 41.87898 7.39926 34189 ft 433 kts 58°
2026-04-24 14:09 41.91132 7.46742 34175 ft 433 kts 58°
2026-04-24 14:09 41.94365 7.53564 34176 ft 433 kts 58°
2026-04-24 14:10 41.97590 7.60388 34174 ft 433 kts 58°
2026-04-24 14:10 42.00811 7.67222 34173 ft 433 kts 58°
2026-04-24 14:11 42.04023 7.74058 34174 ft 432 kts 58°
2026-04-24 14:12 42.08829 7.84332 34172 ft 432 kts 58°
2026-04-24 14:12 42.12030 7.91183 34175 ft 432 kts 58°
2026-04-24 14:13 42.15229 7.98030 34174 ft 432 kts 58°
2026-04-24 14:13 42.18424 8.04878 34171 ft 431 kts 58°
2026-04-24 14:14 42.21601 8.11730 34172 ft 431 kts 58°
2026-04-24 14:14 42.26365 8.22017 34171 ft 430 kts 58°
2026-04-24 14:15 42.29532 8.28877 34172 ft 430 kts 58°
2026-04-24 14:15 42.33337 8.35135 34170 ft 430 kts 41°
2026-04-24 14:16 42.38462 8.39284 34161 ft 433 kts 24°
2026-04-24 14:17 42.46824 8.43899 34153 ft 433 kts 24°
2026-04-24 14:17 42.55183 8.48539 34148 ft 433 kts 24°
2026-04-24 14:18 42.59809 8.51123 34144 ft 433 kts 24°
2026-04-24 14:18 42.65372 8.54242 34148 ft 432 kts 24°
2026-04-24 14:19 42.70933 8.57357 34149 ft 432 kts 24°
2026-04-24 14:19 42.76492 8.60471 34152 ft 432 kts 24°
2026-04-24 14:20 42.82050 8.63582 34152 ft 432 kts 24°
2026-04-24 14:20 42.87604 8.66711 34152 ft 432 kts 24°
2026-04-24 14:21 42.93193 8.69866 34155 ft 432 kts 24°
2026-04-24 14:21 42.98747 8.72997 34153 ft 432 kts 24°
2026-04-24 14:22 43.04301 8.76136 34154 ft 432 kts 24°
2026-04-24 14:23 43.12628 8.80863 34154 ft 432 kts 24°
2026-04-24 14:23 43.18179 8.84026 34152 ft 432 kts 24°
2026-04-24 14:24 43.23690 8.87158 34148 ft 432 kts 24°
2026-04-24 14:24 43.29240 8.90329 34148 ft 432 kts 24°
2026-04-24 14:25 43.34788 8.93507 34153 ft 432 kts 24°
2026-04-24 14:25 43.40579 8.95691 34147 ft 436 kts
2026-04-24 14:26 43.46664 8.95821 34139 ft 438 kts
2026-04-24 14:26 43.52760 8.95842 34135 ft 437 kts
2026-04-24 14:26 43.55722 8.96578 34129 ft 432 kts 21°
2026-04-24 14:27 43.58403 8.98364 34135 ft 427 kts 36°
2026-04-24 14:27 43.60612 9.01062 34126 ft 424 kts 51°
2026-04-24 14:27 43.62298 9.04386 34128 ft 423 kts 57°
2026-04-24 14:28 43.65513 9.11214 34129 ft 425 kts 57°
2026-04-24 14:28 43.68738 9.18064 34133 ft 426 kts 57°
2026-04-24 14:29 43.71967 9.24925 34136 ft 426 kts 57°
2026-04-24 14:29 43.75198 9.31800 34142 ft 426 kts 57°
2026-04-24 14:30 43.77901 9.37561 34144 ft 426 kts 57°
2026-04-24 14:30 43.81642 9.45569 34149 ft 426 kts 57°
2026-04-24 14:31 43.84852 9.52469 34149 ft 426 kts 57°
2026-04-24 14:31 43.88060 9.59379 34152 ft 426 kts 57°
2026-04-24 14:32 43.91267 9.66282 34152 ft 426 kts 57°
2026-04-24 14:32 43.94508 9.73288 34152 ft 426 kts 57°
2026-04-24 14:33 43.97680 9.80164 34143 ft 426 kts 57°
2026-04-24 14:33 44.00871 9.87087 34146 ft 425 kts 57°
2026-04-24 14:34 44.04091 9.94073 34139 ft 425 kts 57°
2026-04-24 14:34 44.07256 10.00971 34136 ft 425 kts 57°
2026-04-24 14:35 44.10454 10.07978 34147 ft 425 kts 57°
2026-04-24 14:35 44.13622 10.14929 34147 ft 425 kts 58°
2026-04-24 14:36 44.16798 10.21921 34132 ft 425 kts 58°
2026-04-24 14:36 44.20039 10.29059 34126 ft 425 kts 58°
2026-04-24 14:37 44.23152 10.35926 34122 ft 424 kts 58°
2026-04-24 14:37 44.26318 10.42935 34117 ft 424 kts 58°
2026-04-24 14:38 44.29455 10.49906 34103 ft 424 kts 58°
2026-04-24 14:38 44.32627 10.56958 34097 ft 424 kts 57°
2026-04-24 14:38 44.34184 10.60420 34239 ft 426 kts 58°
2026-04-24 14:39 44.35760 10.63928 34506 ft 426 kts 58°
2026-04-24 14:39 44.37337 10.67450 34774 ft 426 kts 58°
2026-04-24 14:39 44.38898 10.70946 35042 ft 425 kts 58°
2026-04-24 14:39 44.40459 10.74448 35321 ft 424 kts 58°
2026-04-24 14:40 44.42019 10.77948 35577 ft 423 kts 58°
2026-04-24 14:40 44.43576 10.81441 35837 ft 423 kts 58°
2026-04-24 14:40 44.45132 10.84930 36103 ft 422 kts 58°
2026-04-24 14:40 44.46682 10.88411 36357 ft 421 kts 57°
2026-04-24 14:41 44.48250 10.91936 36613 ft 420 kts 58°
2026-04-24 14:41 44.49789 10.95413 36867 ft 420 kts 58°
2026-04-24 14:41 44.51322 10.98890 37077 ft 419 kts 58°
2026-04-24 14:41 44.52853 11.02358 37317 ft 418 kts 58°
2026-04-24 14:42 44.53866 11.04653 37449 ft 418 kts 58°
2026-04-24 14:42 44.55907 11.09285 37732 ft 417 kts 58°
2026-04-24 14:42 44.57436 11.12755 37935 ft 416 kts 58°
2026-04-24 14:42 44.58955 11.16199 38131 ft 416 kts 58°
2026-04-24 14:43 44.60475 11.19649 38318 ft 415 kts 58°
2026-04-24 14:43 44.61991 11.23095 38507 ft 415 kts 58°
2026-04-24 14:43 44.63502 11.26544 38683 ft 414 kts 58°
2026-04-24 14:43 44.65008 11.29991 38824 ft 414 kts 58°
2026-04-24 14:44 44.66025 11.32317 38913 ft 414 kts 58°
2026-04-24 14:44 44.67532 11.35763 39030 ft 414 kts 58°
2026-04-24 14:44 44.69058 11.39254 39145 ft 414 kts 58°
2026-04-24 14:44 44.70564 11.42702 39265 ft 414 kts 58°
2026-04-24 14:45 44.72087 11.46193 39387 ft 413 kts 58°
2026-04-24 14:45 44.73591 11.49637 39507 ft 413 kts 58°
2026-04-24 14:45 44.75089 11.53077 39626 ft 412 kts 58°
2026-04-24 14:45 44.76579 11.56519 39762 ft 412 kts 58°
2026-04-24 14:46 44.78067 11.59963 39867 ft 411 kts 58°
2026-04-24 14:46 44.79546 11.63393 40019 ft 409 kts 58°
2026-04-24 14:46 44.81023 11.66817 40063 ft 410 kts 58°
2026-04-24 14:47 44.84020 11.73775 40062 ft 415 kts 58°
2026-04-24 14:47 44.87030 11.80761 40063 ft 419 kts 58°
2026-04-24 14:48 44.90063 11.87809 40063 ft 421 kts 58°
2026-04-24 14:48 44.93091 11.94866 40063 ft 421 kts 58°
2026-04-24 14:49 44.96116 12.01939 40069 ft 421 kts 58°
2026-04-24 14:49 44.99133 12.09029 40076 ft 421 kts 58°
2026-04-24 14:50 45.02152 12.16134 40087 ft 422 kts 58°
2026-04-24 14:50 45.05179 12.23264 40089 ft 422 kts 58°
2026-04-24 14:51 45.08188 12.30378 40094 ft 422 kts 58°
2026-04-24 14:51 45.11220 12.37562 40096 ft 422 kts 58°
2026-04-24 14:52 45.14228 12.44703 40100 ft 422 kts 58°
2026-04-24 14:52 45.17224 12.51857 40099 ft 422 kts 58°
2026-04-24 14:53 45.20222 12.59016 40101 ft 422 kts 58°
2026-04-24 14:53 45.23211 12.66177 40103 ft 422 kts 58°
2026-04-24 14:54 45.26197 12.73342 40100 ft 422 kts 58°
2026-04-24 14:54 45.29181 12.80518 40107 ft 422 kts 58°
2026-04-24 14:55 45.31656 12.86481 40107 ft 422 kts 58°
2026-04-24 14:55 45.35130 12.94879 40109 ft 421 kts 58°
2026-04-24 14:56 45.38075 13.02021 40112 ft 421 kts 58°
2026-04-24 14:56 45.41050 13.09265 40110 ft 421 kts 58°
2026-04-24 14:57 45.44005 13.16465 40114 ft 421 kts 58°
2026-04-24 14:57 45.46957 13.23670 40113 ft 421 kts 58°
2026-04-24 14:58 45.49901 13.30890 40110 ft 421 kts 58°
2026-04-24 14:58 45.52861 13.38161 40113 ft 421 kts 58°
2026-04-24 14:59 45.55795 13.45394 40111 ft 421 kts 58°
2026-04-24 14:59 45.58755 13.52601 40110 ft 420 kts 54°
2026-04-24 15:00 45.62116 13.59431 40112 ft 420 kts 54°
2026-04-24 15:00 45.65490 13.66311 40110 ft 420 kts 54°
2026-04-24 15:01 45.68834 13.73157 40113 ft 420 kts 54°
2026-04-24 15:01 45.72172 13.80018 40107 ft 420 kts 54°
2026-04-24 15:02 45.75515 13.86887 40090 ft 420 kts 54°
2026-04-24 15:02 45.78869 13.93780 40099 ft 420 kts 54°
2026-04-24 15:03 45.81656 13.99505 40094 ft 420 kts 53°
2026-04-24 15:03 45.85554 14.07541 40090 ft 420 kts 54°
2026-04-24 15:04 45.88871 14.14430 40082 ft 420 kts 54°
2026-04-24 15:04 45.92200 14.21378 40072 ft 420 kts 54°
2026-04-24 15:05 45.95497 14.28244 40067 ft 420 kts 54°
2026-04-24 15:05 45.98567 14.34643 40062 ft 420 kts 54°
2026-04-24 15:06 46.01871 14.41562 39840 ft 418 kts 54°
2026-04-24 15:06 46.03512 14.45005 39331 ft 416 kts 54°
2026-04-24 15:06 46.05145 14.48433 38865 ft 414 kts 54°
2026-04-24 15:06 46.06765 14.51840 38316 ft 412 kts 54°
2026-04-24 15:07 46.08383 14.55245 37669 ft 412 kts 54°
2026-04-24 15:07 46.10003 14.58658 36987 ft 413 kts 54°
2026-04-24 15:07 46.11625 14.62085 36301 ft 415 kts 54°
2026-04-24 15:07 46.13253 14.65527 35629 ft 417 kts 54°
2026-04-24 15:08 46.14890 14.68987 34965 ft 419 kts 54°
2026-04-24 15:08 46.16544 14.72487 34302 ft 420 kts 54°
2026-04-24 15:08 46.18182 14.75956 33600 ft 422 kts 54°
2026-04-24 15:08 46.19808 14.79406 32818 ft 424 kts 54°
2026-04-24 15:09 46.21477 14.82948 32027 ft 428 kts 54°
2026-04-24 15:09 46.23143 14.86494 31431 ft 426 kts 54°
2026-04-24 15:09 46.24808 14.90044 30749 ft 427 kts 55°
2026-04-24 15:09 46.26476 14.93609 30046 ft 429 kts 55°
2026-04-24 15:10 46.27606 14.96030 29506 ft 431 kts 55°
2026-04-24 15:10 46.29283 14.99621 28822 ft 430 kts 55°
2026-04-24 15:10 46.30951 15.03188 28211 ft 427 kts 55°
2026-04-24 15:10 46.31510 15.04385 28005 ft 426 kts 55°
2026-04-24 15:11 46.36205 15.14471 26306 ft 418 kts 55°
2026-04-24 15:11 46.37820 15.17951 25729 ft 414 kts 55°
2026-04-24 15:11 46.39416 15.21390 24911 ft 410 kts 55°
2026-04-24 15:12 46.41001 15.24803 24107 ft 408 kts 55°
2026-04-24 15:12 46.44156 15.31597 22936 ft 403 kts 54°
2026-04-24 15:12 46.45991 15.34624 22362 ft 397 kts 39°
2026-04-24 15:13 46.48298 15.36746 21826 ft 391 kts 24°
2026-04-24 15:13 46.50773 15.38376 21442 ft 390 kts 24°
2026-04-24 15:13 46.53276 15.40025 21060 ft 388 kts 24°
2026-04-24 15:13 46.55730 15.41642 20710 ft 385 kts 23°
2026-04-24 15:14 46.58161 15.43243 20653 ft 384 kts 24°
2026-04-24 15:14 46.60597 15.44853 20604 ft 385 kts 24°
2026-04-24 15:14 46.63017 15.46454 20556 ft 384 kts 24°
2026-04-24 15:14 46.65467 15.48077 20504 ft 384 kts 24°
2026-04-24 15:15 46.67887 15.49677 20463 ft 386 kts 24°
2026-04-24 15:15 46.70342 15.51301 20401 ft 384 kts 23°
2026-04-24 15:15 46.72774 15.52912 20351 ft 384 kts 24°
2026-04-24 15:15 46.75204 15.54527 20301 ft 384 kts 24°
2026-04-24 15:16 46.77628 15.56138 20254 ft 383 kts 24°
2026-04-24 15:16 46.80055 15.57752 20206 ft 383 kts 23°
2026-04-24 15:16 46.82515 15.59391 19961 ft 381 kts 24°
2026-04-24 15:16 46.84881 15.60973 19734 ft 380 kts 23°
2026-04-24 15:17 46.87279 15.62576 19495 ft 378 kts 23°
2026-04-24 15:17 46.89665 15.64168 19249 ft 376 kts 23°
2026-04-24 15:17 46.92042 15.65757 19025 ft 375 kts 23°
2026-04-24 15:17 46.94437 15.67364 18784 ft 373 kts 23°
2026-04-24 15:18 46.96794 15.68944 18561 ft 372 kts 23°
2026-04-24 15:18 46.99139 15.70517 18325 ft 370 kts 23°
2026-04-24 15:18 47.01472 15.72085 18066 ft 369 kts 23°
2026-04-24 15:18 47.03800 15.73650 17798 ft 367 kts 22°
2026-04-24 15:19 47.06116 15.75205 17538 ft 365 kts 22°
2026-04-24 15:19 47.08425 15.76755 17277 ft 364 kts 22°
2026-04-24 15:19 47.10726 15.78301 17015 ft 363 kts 22°
2026-04-24 15:19 47.13013 15.79847 16765 ft 361 kts 23°
2026-04-24 15:20 47.15292 15.81391 16507 ft 360 kts 22°
2026-04-24 15:20 47.17565 15.82928 16253 ft 359 kts 22°
2026-04-24 15:20 47.19832 15.84460 16005 ft 358 kts 22°
2026-04-24 15:20 47.22089 15.85985 15755 ft 357 kts 22°
2026-04-24 15:21 47.24340 15.87506 15516 ft 355 kts 22°
2026-04-24 15:21 47.26577 15.89022 15275 ft 354 kts 22°
2026-04-24 15:21 47.28815 15.90544 15039 ft 353 kts 22°
2026-04-24 15:21 47.31043 15.92061 14791 ft 352 kts 23°
2026-04-24 15:22 47.33237 15.93555 14555 ft 351 kts 22°
2026-04-24 15:22 47.35449 15.95061 14323 ft 350 kts 22°
2026-04-24 15:22 47.37654 15.96564 14081 ft 349 kts 22°
2026-04-24 15:23 47.42044 15.99569 13594 ft 347 kts 22°
2026-04-24 15:23 47.46407 16.02554 13051 ft 344 kts 22°
2026-04-24 15:23 47.48572 16.04035 12808 ft 342 kts 22°
2026-04-24 15:24 47.54329 16.07979 12123 ft 339 kts 22°
2026-04-24 15:25 47.58571 16.10900 11315 ft 330 kts 22°
2026-04-24 15:25 47.62758 16.13773 10326 ft 329 kts 21°
2026-04-24 15:26 47.68967 16.18058 9438 ft 323 kts 21°
2026-04-24 15:27 47.74946 16.22250 7225 ft 304 kts 26°
2026-04-24 15:27 47.78825 16.29048 6844 ft 279 kts 57°
2026-04-24 15:28 47.82381 16.38382 6132 ft 244 kts 56°
2026-04-24 15:29 47.84040 16.42734 5468 ft 233 kts 56°
2026-04-24 15:30 47.86320 16.48755 4397 ft 218 kts 56°
2026-04-24 15:31 47.89167 16.56271 3259 ft 206 kts 56°
2026-04-24 15:32 47.91981 16.63352 2998 ft 175 kts 39°
2026-04-24 15:33 47.96099 16.64510 3005 ft 146 kts 340°
2026-04-24 15:33 47.98995 16.63293 2606 ft 143 kts 341°
2026-04-24 15:34 48.00859 16.62509 2259 ft 140 kts 341°
2026-04-24 15:35 48.03665 16.61327 1704 ft 137 kts 341°
2026-04-24 15:35 48.05501 16.60553 1325 ft 141 kts 340°
2026-04-24 15:35 48.06433 16.60161 1134 ft 138 kts 340°
2026-04-24 15:36 48.07359 16.59764 937 ft 138 kts 339°
2026-04-24 15:36 48.09186 16.58998 625 ft 131 kts 339°
2026-04-24 15:36 48.09947 16.58674 616 ft 91 kts 343°
2026-04-24 15:37 48.10393 16.58486 623 ft 42 kts 343°
2026-04-24 15:37 48.10605 16.58396 616 ft 31 kts 346°
2026-04-24 15:37 48.10847 16.58292 617 ft 42 kts 342°
2026-04-24 15:37 48.11033 16.58092 616 ft 29 kts 296°
2026-04-24 15:38 48.11103 16.57873 620 ft 21 kts 296°
2026-04-24 15:38 48.11163 16.57689 617 ft 14 kts 294°
2026-04-24 15:38 48.11204 16.57558 619 ft 14 kts 296°
2026-04-24 15:38 48.11249 16.57429 624 ft 14 kts 297°
2026-04-24 15:39 48.11308 16.57340 612 ft 12 kts
2026-04-24 15:39 48.11384 16.57378 618 ft 11 kts 24°
2026-04-24 15:39 48.11451 16.57426 610 ft 12 kts 27°
2026-04-24 15:39 48.11556 16.57456 616 ft 17 kts 350°
2026-04-24 15:40 48.11669 16.57405 617 ft 17 kts 343°
2026-04-24 15:40 48.11782 16.57357 618 ft 17 kts 343°
2026-04-24 15:40 48.11840 16.57256 614 ft 13 kts 294°
2026-04-24 15:40 48.11855 16.57126 610 ft 12 kts 287°
2026-04-24 15:41 48.11844 16.57068 624 ft 1 kts 209°
2026-04-24 15:41 48.11837 16.57062 623 ft 2 kts 209°
2026-04-24 15:41 48.11815 16.57046 624 ft 1 kts 205°
2026-04-24 15:41 48.11810 16.57043 622 ft 1 kts 205°